Tracking 19827 objects as of 21-Aug-2019
HD Live streaming from Space Station
objects crossing your sky now

COSMOS 1800

Track COSMOS 1800 now!
10-day predictions
COSMOS 1800 is classified as:


NORAD ID: 17144
Int'l Code: 1986-092G
Perigee: 1,404.8 km
Apogee: 1,480.2 km
Inclination: 74.0 °
Period: 114.6 minutes
Semi major axis: 7813 km
RCS: 0.7179 m2 (medium)
Launch date: November 21, 1986
Source: Commonwealth of Independent States (former USSR) (CIS)
Launch site: PLESETSK MISSILE AND SPACE COMPLEX (PKMTR)
aabbcc
Your satellite tracking list
Your tracking list is empty




NASA's NSSDC Master Catalog

Two Line Element Set (TLE):
1 17144U 86092G   19232.94338159 -.00000026 +00000-0 -56660-4 0  9998
2 17144 074.0132 181.3512 0048209 279.4755 136.0746 12.56999636502627
Source of the keplerian elements: AFSPC